SSG04A LZPP-EDLP

Flight info

Callsign SSG04A
Flight time N/A
Altitude 38000
Route MAVOR DCT VOZ DCT RAPET T843 DEMAB L604 MAPOX DCT PELUN PELUN3H
Aircraft A319/M-SDE3FGHIRWY/LB1

Departure

Time N/A
Airport Piešťany Airport (LZPP)

Arrival

Time 2026-04-30 18:02
Airport Paderborn Lippstadt Airport (EDLP)
Time Latitude Longitude Altitude Speed Heading
2026-04-30 17:39 50.30845 11.37146 40429 ft 466 kts 291°
2026-04-30 17:42 50.39717 10.88292 40428 ft 466 kts 290°
2026-04-30 17:43 50.44054 10.63836 39967 ft 463 kts 290°
2026-04-30 17:44 50.46634 10.49191 37602 ft 467 kts 290°
2026-04-30 17:44 50.49743 10.34796 36343 ft 459 kts 308°
2026-04-30 17:46 50.58755 10.13762 33356 ft 470 kts 308°
2026-04-30 17:47 50.66062 9.96414 30970 ft 480 kts 308°
2026-04-30 17:48 50.73501 9.78654 28356 ft 486 kts 307°
2026-04-30 17:48 50.79090 9.65237 28398 ft 491 kts 307°
2026-04-30 17:49 50.86612 9.47077 24456 ft 499 kts 306°
2026-04-30 17:50 50.93974 9.29139 20342 ft 464 kts 306°
2026-04-30 17:51 50.99139 9.16509 17502 ft 446 kts 306°
2026-04-30 17:52 51.04132 9.04256 15377 ft 437 kts 305°
2026-04-30 17:53 51.12215 8.84242 12588 ft 423 kts 306°
2026-04-30 17:54 51.21371 8.73561 10491 ft 407 kts 327°
2026-04-30 17:55 51.28906 8.60670 9667 ft 385 kts 314°
2026-04-30 17:56 51.36057 8.47985 8768 ft 382 kts 314°
2026-04-30 17:57 51.41383 8.38567 8009 ft 378 kts 314°
2026-04-30 17:58 51.48089 8.34212 7114 ft 338 kts 15°
2026-04-30 17:59 51.53918 8.43421 3509 ft 291 kts 63°
2026-04-30 18:00 51.57778 8.52727 1870 ft 199 kts 61°
2026-04-30 18:00 51.59493 8.56926 1249 ft 135 kts 59°
2026-04-30 18:01 51.60384 8.59114 927 ft 113 kts 62°
2026-04-30 18:02 51.61456 8.61741 693 ft 45 kts 57°
2026-04-30 18:02 51.61877 8.62784 682 ft 27 kts 57°
2026-04-30 18:03 51.61687 8.62797 686 ft 23 kts 237°
2026-04-30 18:04 51.61413 8.62127 690 ft 25 kts 237°
2026-04-30 18:05 51.61086 8.61713 697 ft 8 kts 195°
2026-04-30 18:06 51.61032 8.61671 696 ft 0 kts 237°